• In Österreich
  • Länderverzeichnis
  • Für 7 Tage
  • Wassertemperatur
  • Satellitenkarten
  • Wetterkarte
  • News
  • Widgets
  • user-avatar
    Anmelden

    Stündliche Wetter Chechuzhyne

    Heute, 21 August, Dienstag

    Zeit Temperatur Niederschläge Wind Luftdruck Luftfeuchtigkeit
    00:00 +20°C° 0 mm 2 m/S 754 mmHg 39%
    01:00 +20°C° 0 mm 2 m/S 754 mmHg 40%
    02:00 +21°C° 0 mm 1 m/S 754 mmHg 42%
    03:00 +20°C° 0 mm 1 m/S 754 mmHg 43%
    04:00 +20°C° 0 mm 1 m/S 754 mmHg 44%
    05:00 +20°C° 0 mm 1 m/S 754 mmHg 44%
    06:00 +22°C° 0 mm 1 m/S 754 mmHg 41%
    07:00 +24°C° 0 mm 1 m/S 754 mmHg 38%
    08:00 +27°C° 0 mm 1 m/S 754 mmHg 34%
    09:00 +28°C° 0 mm 2 m/S 754 mmHg 31%
    10:00 +30°C° 0 mm 2 m/S 754 mmHg 29%
    11:00 +31°C° 0 mm 2 m/S 753 mmHg 26%
    12:00 +32°C° 0 mm 2 m/S 753 mmHg 26%
    13:00 +32°C° 0 mm 2 m/S 753 mmHg 26%
    14:00 +34°C° 0 mm 3 m/S 752 mmHg 27%
    15:00 +33°C° 0 mm 3 m/S 752 mmHg 29%
    16:00 +33°C° 0 mm 3 m/S 752 mmHg 31%
    17:00 +33°C° 0 mm 3 m/S 752 mmHg 33%
    18:00 +30°C° 0 mm 2 m/S 752 mmHg 37%
    19:00 +28°C° 0 mm 2 m/S 752 mmHg 42%
    20:00 +26°C° 0 mm 2 m/S 752 mmHg 47%
    21:00 +25°C° 0,1 mm 2 m/S 752 mmHg 53%
    22:00 +24°C° 0,1 mm 2 m/S 752 mmHg 59%
    23:00 +24°C° 0,1 mm 3 m/S 752 mmHg 65%

    Morgen, 22 August, Mittwoch

    Zeit Temperatur Niederschläge Wind Luftdruck Luftfeuchtigkeit
    00:00 +22°C° 0 mm 3 m/S 753 mmHg 71%
    01:00 +21°C° 0 mm 3 m/S 753 mmHg 77%
    02:00 +20°C° 0 mm 3 m/S 753 mmHg 83%
    03:00 +20°C° 0 mm 3 m/S 753 mmHg 85%
    04:00 +19°C° 0 mm 3 m/S 753 mmHg 87%
    05:00 +18°C° 0 mm 3 m/S 754 mmHg 88%
    06:00 +19°C° 0 mm 3 m/S 754 mmHg 80%
    07:00 +21°C° 0 mm 4 m/S 754 mmHg 72%
    08:00 +22°C° 0 mm 4 m/S 755 mmHg 64%
    09:00 +23°C° 0 mm 5 m/S 755 mmHg 57%
    10:00 +26°C° 0 mm 5 m/S 755 mmHg 51%
    11:00 +27°C° 0 mm 5 m/S 755 mmHg 44%
    12:00 +27°C° 0 mm 5 m/S 755 mmHg 42%
    13:00 +28°C° 0 mm 5 m/S 755 mmHg 40%
    14:00 +28°C° 0 mm 5 m/S 755 mmHg 38%
    15:00 +27°C° 0 mm 5 m/S 755 mmHg 39%
    16:00 +27°C° 0 mm 5 m/S 756 mmHg 40%
    17:00 +26°C° 0 mm 5 m/S 756 mmHg 40%
    18:00 +25°C° 0 mm 5 m/S 756 mmHg 45%
    19:00 +22°C° 0 mm 4 m/S 757 mmHg 49%
    20:00 +20°C° 0 mm 4 m/S 757 mmHg 53%
    21:00 +19°C° 0 mm 4 m/S 757 mmHg 55%
    22:00 +18°C° 0 mm 3 m/S 758 mmHg 56%
    23:00 +17°C° 0 mm 3 m/S 758 mmHg 58%

    übermorgen, 23 August, Donnerstag

    Zeit Temperatur Niederschläge Wind Luftdruck Luftfeuchtigkeit
    00:00 +16°C° 0 mm 3 m/S 758 mmHg 60%
    01:00 +16°C° 0 mm 3 m/S 758 mmHg 62%
    02:00 +14°C° 0 mm 3 m/S 758 mmHg 64%
    03:00 +14°C° 0 mm 3 m/S 759 mmHg 65%
    04:00 +13°C° 0 mm 3 m/S 759 mmHg 67%
    05:00 +13°C° 0 mm 3 m/S 759 mmHg 68%
    06:00 +16°C° 0 mm 3 m/S 759 mmHg 62%
    07:00 +18°C° 0 mm 3 m/S 759 mmHg 55%
    08:00 +20°C° 0 mm 3 m/S 759 mmHg 48%
    09:00 +22°C° 0 mm 3 m/S 759 mmHg 43%
    10:00 +24°C° 0 mm 3 m/S 759 mmHg 38%
    11:00 +26°C° 0 mm 3 m/S 759 mmHg 32%
    12:00 +26°C° 0 mm 3 m/S 758 mmHg 30%
    13:00 +27°C° 0 mm 3 m/S 758 mmHg 28%
    14:00 +28°C° 0 mm 3 m/S 758 mmHg 26%
    15:00 +27°C° 0 mm 3 m/S 757 mmHg 27%
    16:00 +27°C° 0 mm 3 m/S 757 mmHg 28%
    17:00 +27°C° 0 mm 3 m/S 757 mmHg 29%
    18:00 +25°C° 0 mm 3 m/S 757 mmHg 33%
    19:00 +21°C° 0 mm 3 m/S 757 mmHg 37%
    20:00 +19°C° 0 mm 3 m/S 757 mmHg 41%
    21:00 +19°C° 0 mm 3 m/S 757 mmHg 44%
    22:00 +18°C° 0 mm 3 m/S 758 mmHg 46%
    23:00 +17°C° 0 mm 3 m/S 758 mmHg 48%

    24 August, Freitag

    Zeit Temperatur Niederschläge Wind Luftdruck Luftfeuchtigkeit
    00:00 +17°C° 0 mm 3 m/S 758 mmHg 50%
    01:00 +16°C° 0 mm 3 m/S 757 mmHg 52%
    02:00 +14°C° 0 mm 3 m/S 757 mmHg 54%
    03:00 +14°C° 0 mm 3 m/S 757 mmHg 56%
    04:00 +14°C° 0 mm 3 m/S 757 mmHg 57%
    05:00 +13°C° 0 mm 3 m/S 757 mmHg 58%
    06:00 +16°C° 0 mm 3 m/S 757 mmHg 52%
    07:00 +19°C° 0 mm 3 m/S 757 mmHg 47%
    08:00 +21°C° 0 mm 3 m/S 757 mmHg 42%
    09:00 +23°C° 0 mm 4 m/S 757 mmHg 36%
    10:00 +26°C° 0 mm 4 m/S 756 mmHg 31%
    11:00 +28°C° 0 mm 4 m/S 756 mmHg 25%
    12:00 +29°C° 0 mm 4 m/S 756 mmHg 24%
    13:00 +29°C° 0 mm 4 m/S 755 mmHg 23%
    14:00 +30°C° 0 mm 4 m/S 755 mmHg 21%
    15:00 +30°C° 0 mm 4 m/S 755 mmHg 23%
    16:00 +29°C° 0 mm 3 m/S 754 mmHg 25%
    17:00 +29°C° 0 mm 3 m/S 754 mmHg 26%
    18:00 +27°C° 0 mm 3 m/S 754 mmHg 30%
    19:00 +25°C° 0 mm 3 m/S 754 mmHg 33%
    20:00 +21°C° 0 mm 4 m/S 754 mmHg 37%
    21:00 +21°C° 0 mm 4 m/S 754 mmHg 38%
    22:00 +20°C° 0 mm 4 m/S 754 mmHg 40%
    23:00 +19°C° 0 mm 4 m/S 754 mmHg 41%

    25 August, Samstag

    Zeit Temperatur Niederschläge Wind Luftdruck Luftfeuchtigkeit
    00:00 +19°C° 0 mm 4 m/S 754 mmHg 42%
    01:00 +18°C° 0 mm 3 m/S 754 mmHg 42%
    02:00 +18°C° 0 mm 3 m/S 754 mmHg 42%
    03:00 +17°C° 0 mm 3 m/S 754 mmHg 43%
    04:00 +17°C° 0 mm 3 m/S 754 mmHg 43%
    05:00 +17°C° 0 mm 3 m/S 754 mmHg 44%
    06:00 +19°C° 0 mm 4 m/S 754 mmHg 41%
    07:00 +21°C° 0 mm 4 m/S 754 mmHg 38%
    08:00 +23°C° 0 mm 5 m/S 754 mmHg 35%
    09:00 +26°C° 0 mm 4 m/S 754 mmHg 32%
    10:00 +28°C° 0 mm 4 m/S 753 mmHg 28%
    11:00 +30°C° 0 mm 4 m/S 753 mmHg 25%
    12:00 +32°C° 0 mm 4 m/S 753 mmHg 24%
    13:00 +33°C° 0 mm 4 m/S 753 mmHg 23%
    14:00 +33°C° 0 mm 4 m/S 752 mmHg 22%
    15:00 +33°C° 0 mm 3 m/S 752 mmHg 23%
    16:00 +31°C° 0 mm 3 m/S 752 mmHg 24%
    17:00 +31°C° 0 mm 3 m/S 752 mmHg 25%
    18:00 +28°C° 0 mm 3 m/S 752 mmHg 28%
    19:00 +26°C° 0 mm 4 m/S 752 mmHg 31%
    20:00 +23°C° 0 mm 4 m/S 752 mmHg 33%
    21:00 +22°C° 0 mm 4 m/S 752 mmHg 35%
    22:00 +21°C° 0 mm 4 m/S 752 mmHg 36%
    23:00 +21°C° 0 mm 4 m/S 752 mmHg 37%

    26 August, Sonntag

    Zeit Temperatur Niederschläge Wind Luftdruck Luftfeuchtigkeit
    00:00 +20°C° 0 mm 4 m/S 752 mmHg 37%
    01:00 +19°C° 0 mm 4 m/S 752 mmHg 37%
    02:00 +19°C° 0 mm 3 m/S 752 mmHg 37%
    03:00 +18°C° 0 mm 3 m/S 752 mmHg 37%
    04:00 +18°C° 0 mm 3 m/S 752 mmHg 37%
    05:00 +17°C° 0 mm 3 m/S 752 mmHg 37%
    06:00 +19°C° 0 mm 4 m/S 752 mmHg 35%
    07:00 +21°C° 0 mm 4 m/S 752 mmHg 33%
    08:00 +23°C° 0 mm 4 m/S 752 mmHg 32%
    09:00 +26°C° 0 mm 5 m/S 752 mmHg 29%
    10:00 +28°C° 0 mm 5 m/S 752 mmHg 27%
    11:00 +30°C° 0 mm 5 m/S 751 mmHg 25%
    12:00 +32°C° 0 mm 6 m/S 751 mmHg 24%
    13:00 +33°C° 0 mm 6 m/S 751 mmHg 23%
    14:00 +33°C° 0 mm 6 m/S 751 mmHg 22%
    15:00 +33°C° 0 mm 5 m/S 750 mmHg 24%
    16:00 +33°C° 0 mm 5 m/S 750 mmHg 25%
    17:00 +32°C° 0 mm 4 m/S 750 mmHg 27%
    18:00 +29°C° 0 mm 4 m/S 750 mmHg 30%
    19:00 +27°C° 0 mm 4 m/S 750 mmHg 33%
    20:00 +25°C° 0 mm 4 m/S 750 mmHg 36%
    21:00 +25°C° 0 mm 4 m/S 750 mmHg 36%
    22:00 +23°C° 0 mm 4 m/S 750 mmHg 37%
    23:00 +23°C° 0 mm 4 m/S 750 mmHg 37%
    Mehr zeigen